Hurricane Symbol View the latest observations near Atlantic Tropical Storm Alberto.

Station 41009 (LLNR 840) - CANAVERAL 20 NM East of Cape Canaveral, FL Image indicating link to RSS feed of recent meteorological observations for station 41009


Conditions at 41009 as of
(5:00 pm EDT)
2100 GMT on 06/19/2024:
     

Click on the graph icon in the table below to see a time series plot of the last five days of that observation.

5-day plot - Wind Direction Wind Direction (WDIR):ENE ( 70 deg true )
5-day plot - Wind Speed Wind Speed (WSPD): 17.5 kts
5-day plot - Wind Gust Wind Gust (GST): 21.4 kts
5-day plot - Atmospheric Pressure Atmospheric Pressure (PRES):30.07 in
5-day plot - Pressure Tendency Pressure Tendency (PTDY):-0.03 in ( Falling )
5-day plot - Air Temperature Air Temperature (ATMP): 81.0 °F
5-day plot - Water Temperature Water Temperature (WTMP): 81.1 °F
5-day plot - Dew Point Dew Point (DEWP): 73.8 °F
5-day plot - Heat Index Heat Index (HEAT): 86.2 °F
5-day plot - Wind Speed at 10 Meters Wind Speed at 10 meters (WSPD10M): 19.4 kts
5-day plot - Wind Speed at 20 Meters Wind Speed at 20 meters (WSPD20M): 21.4 kts
5-day plot -  Wind Speed, Wind Gust and Atmospheric Pressure Combined plot of Wind Speed, Gust, and Air Pressure
Supplemental Measurements
Highest 1-minute Wind Speed
Time (EDT)5-day plot - 1-Minute Wind Speed WSPD 5-day plot - 1-Minute Wind Direction WDIR
4:51 pm 19.4 kts-
Previous observations
TIME
(EDT)
5-day plot - Wind Direction
WDIR
 
5-day plot - Wind Speed
WSPD
kts
5-day plot - Wind Gust
GST
kts
5-day plot - Wave Height
WVHT
ft
5-day plot - Dominant Wave Period
DPD
sec
5-day plot - Average Wave Period
APD
sec
5-day plot - Mean Wave Direction
MWD
 
5-day plot - Atmospheric Pressure
PRES
in
5-day plot - Pressure Tendency
PTDY
in
5-day plot - Air Temperature
ATMP
°F
5-day plot - Water Temperature
WTMP
°F
5-day plot - Dew Point
DEWP
°F
5-day plot - Salinity
SAL
psu
5-day plot - Visibility
VIS
nmi
5-day plot - Tide (above MLLW)
TIDE
ft
2024-06-19 04:50 pmENE 17.5 23.3 7.2 85.8ENE30.07- 81.1 81.1 73.8---
2024-06-19 04:40 pmENE 17.5 23.3----30.07- 81.1 81.1 73.6---
2024-06-19 04:30 pmENE 17.5 21.4----30.08- 81.1 81.1 73.4---
2024-06-19 04:20 pmENE 17.5 21.4 7.9 85.9ENE30.08- 81.0 81.1 73.4---
2024-06-19 04:10 pmENE 17.5 21.4 7.9-5.9ENE30.08- 81.1 81.0 73.8---
2024-06-19 04:00 pmENE 17.5 23.3----30.08-0.02 81.1 81.0 73.4---
2024-06-19 03:50 pmENE 17.5 21.4 6.9 75.8ENE30.08- 81.1 81.0 73.0---
2024-06-19 03:40 pm E 17.5 23.3----30.09- 81.1 81.0 72.9---
2024-06-19 03:30 pm E 17.5 21.4----30.09- 81.1- 72.5---
2024-06-19 03:20 pm E 17.5 21.4 6.9 85.7ENE30.09- 81.1 81.0 72.9---
2024-06-19 03:10 pm E 17.5 21.4 6.9-5.7ENE30.09- 81.0 81.0 72.9---
2024-06-19 03:00 pm E 15.5 21.4----30.09-0.01 81.1 81.0 73.4---
2024-06-19 02:50 pm E 17.5 21.4 6.9 85.8 E30.09- 81.0- 73.0---
2024-06-19 02:40 pm E 17.5 19.4----30.09- 81.1 81.0 73.0---
2024-06-19 02:30 pm E 15.5 21.4----30.09- 81.1 81.0 73.0---
2024-06-19 02:20 pm E 15.5 21.4 6.9 85.5ENE30.10- 81.1 81.0 72.9---
2024-06-19 02:10 pm E 17.5 21.4 6.9-5.5ENE30.10- 81.0 81.0 72.9---
2024-06-19 02:00 pm E 17.5 19.4----30.10+0.00 81.1 81.0 73.2---
2024-06-19 01:50 pm E 15.5 19.4 7.2 85.8ENE30.10- 81.1 81.0 73.4---
2024-06-19 01:40 pm E 15.5 19.4----30.10- 81.1 81.0 73.0---
2024-06-19 01:30 pm E 15.5 19.4----30.10- 80.6 81.0 73.2---
2024-06-19 01:20 pm E 17.5 21.4 7.2 85.7ENE30.10- 81.0 81.0 73.4---
2024-06-19 01:10 pm E 15.5 21.4----30.10- 81.1 81.0 73.6---
2024-06-19 01:00 pm E 15.5 19.4----30.10+0.03 81.1 81.0 73.4---
2024-06-19 12:50 pm E 17.5 21.4 7.2 75.7ENE30.10- 81.1 81.0 73.4---
2024-06-19 12:40 pm E 17.5 21.4----30.10- 81.1 81.0 73.2---
2024-06-19 12:30 pm E 17.5 23.3----30.11- 81.1 81.0 73.4---
2024-06-19 12:20 pm E 17.5 21.4 7.9 85.8ENE30.10- 81.1 81.0 73.0---
2024-06-19 12:10 pm E 17.5 21.4 7.9-5.8ENE30.10- 81.0 80.8 73.4---
2024-06-19 12:00 pm E 15.5 23.3----30.10+0.04 81.1 80.8 74.1---
2024-06-19 11:50 am E 17.5 21.4 7.5 85.7ENE30.10- 81.1 80.8 73.6---
2024-06-19 11:40 am E 19.4 25.3----30.10- 81.0 80.8 73.4---
2024-06-19 11:30 am E 19.4 23.3----30.09- 81.0 80.8 73.8---
2024-06-19 11:20 am E 17.5 23.3 7.5 85.9ENE30.09- 81.0 80.8 74.1---
2024-06-19 11:10 am E 19.4 23.3 7.5-5.9ENE30.09- 81.0 80.8 73.9---
2024-06-19 11:00 am E 19.4 23.3----30.09+0.05 81.0 80.8 73.9---
2024-06-19 10:50 am E 19.4 23.3 7.2 85.6ENE30.09- 81.0 80.8 73.8---
2024-06-19 10:40 am E 19.4 25.3----30.09- 81.0 80.8 73.6---
2024-06-19 10:30 am E 19.4 23.3----30.09- 81.1 80.8 73.8---
2024-06-19 10:20 am E 19.4 23.3 7.5 85.8ENE30.08- 81.0 80.8 73.2---
2024-06-19 10:10 am E 19.4 23.3 7.5-5.8ENE30.08- 81.0 80.8 73.2---
2024-06-19 10:00 am E 19.4 23.3----30.08+0.06 80.8 80.8 73.4---
2024-06-19 09:50 am E 17.5 23.3 7.9 85.8ENE30.07- 81.0 80.8 73.6---
2024-06-19 09:40 am E 19.4 27.2----30.07- 81.0 80.8 73.0---
2024-06-19 09:30 am E 19.4 25.3----30.06- 81.0 80.8 73.2---
2024-06-19 09:20 am E 19.4 25.3 7.5 95.7ENE30.06- 81.0 80.8 73.2---
2024-06-19 09:10 am E 19.4 23.3 7.5-5.7ENE30.06- 81.0 80.8 73.2---
2024-06-19 09:00 am E 19.4 25.3----30.06+0.04 81.0 80.8 73.4---
2024-06-19 08:50 am E 19.4 25.3 7.2 95.6ENE30.05- 80.8 80.8 73.4---
2024-06-19 08:40 am E 19.4 23.3----30.05- 80.8 80.8 73.2---
2024-06-19 08:30 am E 19.4 23.3----30.06- 80.8 80.8 73.4---
2024-06-19 08:20 am E 19.4 23.3 7.5 85.7ENE30.05- 80.8 80.8 73.6---
2024-06-19 08:10 am E 19.4 23.3----30.05- 80.8 80.8 73.4---
2024-06-19 08:00 am E 19.4 23.3----30.04+0.03 80.8 80.8 73.2---
2024-06-19 07:50 am E 19.4 23.3 7.9 85.9ENE30.04- 80.8 80.8 73.0---
2024-06-19 07:40 am E 19.4 25.3----30.04- 81.0 80.8 73.4---
2024-06-19 07:30 am E 19.4 23.3----30.03- 81.0 80.8 73.2---
2024-06-19 07:20 am E 19.4 21.4 8.2 86.1 NE30.03- 81.1 80.8 73.0---
2024-06-19 07:10 am E 19.4 23.3 8.2-6.1 NE30.03- 81.1 80.8 72.7---
2024-06-19 07:00 am E 19.4 23.3----30.02+0.01 81.1 80.8 72.5---
2024-06-19 06:50 am E 19.4 23.3 7.5 85.9ENE30.02- 81.1 80.8 72.5---
2024-06-19 06:40 am E 19.4 25.3----30.02- 81.1 80.8 72.3---
2024-06-19 06:30 am E 19.4 23.3----30.01- 81.1 80.8 72.3---
2024-06-19 06:20 am E 19.4 23.3 7.5 85.6ENE30.01- 81.0 80.8 72.5---
2024-06-19 06:10 am E 17.5 23.3 7.5-5.6ENE30.02- 81.0 80.8 73.2---
2024-06-19 06:00 am E 19.4 23.3----30.02+0.00 81.0 80.8 73.0---
2024-06-19 05:50 am E 17.5 23.3 7.5 85.8ENE30.01- 81.0 80.8 72.9---
2024-06-19 05:40 am E 19.4 21.4 7.5-5.8ENE30.01- 81.0 80.8 73.0---
2024-06-19 05:30 am E 17.5 21.4----30.01- 81.0 81.0 73.0---
2024-06-19 05:20 am E 19.4 23.3 7.5 85.8ENE30.01- 80.8 81.0 73.0---
2024-06-19 05:10 am E 17.5 23.3 7.5-5.8ENE30.01- 80.8 81.0 73.6---
2024-06-19 05:00 am E 19.4 25.3----30.01-0.03 80.1 81.0 73.2---
2024-06-19 04:50 am E 15.5 25.3 7.5 85.6ENE30.01- 77.7 81.0 73.8---
2024-06-19 04:40 amESE 19.4 25.3----30.02- 78.3 81.0 74.5---
2024-06-19 04:30 am E 15.5 21.4----30.01- 77.4 81.0 74.7---
2024-06-19 04:20 amESE 17.5 21.4 7.9 95.6ENE30.01- 76.8 81.0 74.7---
2024-06-19 04:10 amESE 19.4 25.3 7.9-5.6ENE30.02- 77.5 81.0 75.2---
2024-06-19 04:00 amESE 19.4 25.3----30.01-0.04 77.9 81.0 75.0---
2024-06-19 03:50 amESE 21.4 27.2 8.9 85.9ENE30.01- 79.5 81.0 75.0---
2024-06-19 03:40 am E 21.4 25.3----30.01- 81.0 81.0 73.2---
2024-06-19 03:30 am E 21.4 25.3----30.01- 80.8 81.0 73.2---
2024-06-19 03:20 am E 21.4 25.3 8.5 86.1ENE30.00- 81.0 81.0 73.2---
2024-06-19 03:10 am E 21.4 25.3 8.5-6.1ENE30.01- 81.0 81.0 73.4---
2024-06-19 03:00 am E 19.4 25.3----30.01-0.04 81.0 81.0 73.4---
2024-06-19 02:50 am E 19.4 25.3 8.2 86.0ENE30.01- 81.0 81.0 73.4---
2024-06-19 02:40 am E 19.4 25.3----30.02- 81.0 81.0 73.6---
2024-06-19 02:30 am E 17.5 25.3----30.02- 80.1 81.0 74.3---
2024-06-19 02:20 am E 17.5 19.4 8.9 85.9ENE30.02- 78.4 81.0 74.3---
2024-06-19 02:10 am E 19.4 25.3 8.9-5.9ENE30.02- 77.5 81.0 74.5---
2024-06-19 02:00 amESE 23.3 27.2----30.04-0.01 78.1 81.0 74.8---
2024-06-19 01:50 am E 23.3 33.0 8.5 86.0ENE30.03- 80.2 81.0 74.3---
2024-06-19 01:40 am E 19.4 25.3----30.03- 79.9 81.0 74.3---
2024-06-19 01:30 am E 19.4 25.3----30.03- 79.5 81.0 74.3---
2024-06-19 01:20 am E 19.4 27.2 8.5 85.8ENE30.04- 79.2 81.0 74.5---
2024-06-19 01:10 am E 21.4 27.2----30.04- 78.4 81.0 74.7---
2024-06-19 01:00 am E 21.4 27.2----30.05+0.01 77.5 80.8 75.0---
2024-06-19 12:50 am E 23.3 29.1 8.5 85.9ENE30.05- 77.4 81.0 75.0---
2024-06-19 12:40 am E 25.3 31.1----30.06- 79.0 81.0 75.0---
2024-06-19 12:30 am E 21.4 31.1----30.05- 79.7 81.0 74.1---
2024-06-19 12:20 am E 19.4 25.3 7.5 85.7ENE30.05- 78.4 81.0 74.7---
2024-06-19 12:10 am E 21.4 29.1 7.5-5.7ENE30.05- 78.3 81.0 75.0---
2024-06-19 12:00 am E 23.3 29.1----30.05+0.04 77.7 81.0 74.8---
2024-06-18 11:50 pm E 23.3 31.1 8.5 96.2ENE30.06- 77.0 81.0 74.8---
2024-06-18 11:40 pm E 23.3 31.1----30.06- 77.2 81.0 75.4---
2024-06-18 11:30 pmESE 19.4 27.2----30.06- 77.7 81.0 75.7---
2024-06-18 11:20 pmESE 15.5 23.3 8.2 85.9ENE30.06- 78.4 81.0 75.2---
2024-06-18 11:10 pm E 21.4 27.2 8.2-5.9ENE30.05- 79.0 81.0 75.6---
2024-06-18 11:00 pm E 21.4 25.3----30.05+0.05 78.6 81.0 75.4---
2024-06-18 10:50 pm E 23.3 29.1 7.9 85.9ENE30.04- 78.6 80.8 75.0---
2024-06-18 10:40 pmESE 19.4 23.3----30.05- 78.4 80.8 75.2---
2024-06-18 10:30 pm E 17.5 21.4----30.05- 78.1 80.8 74.1---
2024-06-18 10:20 pmESE 17.5 21.4 8.5 85.9ENE30.05- 78.1 80.8 72.1---
2024-06-18 10:10 pm E 23.3 31.1 8.5-5.9ENE30.05- 78.1 80.8 72.3---
2024-06-18 10:00 pm E 23.3 29.1----30.04+0.06 77.2 80.8 73.8---
2024-06-18 09:50 pm E 19.4 25.3 8.9 85.8ENE30.03- 77.7 80.8 75.7---
2024-06-18 09:40 pm E 21.4 29.1----30.03- 78.6 80.8 75.9---
2024-06-18 09:30 pm E 25.3 31.1----30.01- 78.8 80.8 75.6---
2024-06-18 09:20 pm E 25.3 31.1 8.5 85.8 E30.00- 78.4 80.8 75.4---
2024-06-18 09:10 pm E 25.3 31.1 8.5-5.8 E30.01- 79.0 80.8 75.9---
2024-06-18 09:00 pm E 23.3 29.1----30.00+0.02 79.2 80.8 75.7---
2024-06-18 08:50 pm E 21.4 27.2 8.2 85.7ENE30.00- 79.5 80.8 76.1---
2024-06-18 08:40 pm E 21.4 27.2----30.00- 79.3 80.8 76.3---
2024-06-18 08:30 pm E 21.4 27.2----29.99- 79.5 80.8 75.9---
2024-06-18 08:20 pm E 21.4 27.2 7.5 85.7ENE29.99- 79.5 80.8 75.4---
2024-06-18 08:10 pm E 23.3 27.2 7.5-5.7ENE30.00- 79.7 80.8 75.6---
2024-06-18 08:00 pm E 21.4 27.2----30.00+0.02 80.1 80.8 75.7---
2024-06-18 07:50 pmENE 21.4 25.3 7.2 85.6ENE30.00- 80.1 80.8 75.4---
2024-06-18 07:40 pmENE 21.4 25.3----30.00- 79.9 80.6 75.6---
2024-06-18 07:20 pmENE 21.4 27.2 8.2 86.0ENE29.99- 79.9 80.6 75.4---
2024-06-18 07:10 pm E 21.4 27.2 8.2-6.0ENE29.98- 80.2 80.6 74.5---
2024-06-18 07:00 pm E 21.4 25.3----29.98-0.02 79.7 80.6 73.8---
2024-06-18 06:50 pm E 17.5 23.3 8.2 86.0 E29.98- 79.3 80.6 74.8---
2024-06-18 06:40 pm E 15.5 19.4----29.98- 78.6 80.6 74.8---
2024-06-18 06:30 pm E 15.5 19.4----29.98- 78.8 80.6 75.4---
2024-06-18 06:20 pm E 17.5 21.4 8.5 85.9ENE29.98- 79.2 80.6 75.2---
2024-06-18 06:10 pmENE 17.5 21.4 8.5-5.9ENE29.98- 79.0 80.4 75.6---
2024-06-18 06:00 pmENE 17.5 23.3----29.98-0.03 78.8 80.4 75.6---
2024-06-18 05:50 pmENE 19.4 23.3 9.8 86.1ENE29.99- 78.6 80.4 74.7---
2024-06-18 05:40 pmENE 19.4 25.3----29.99- 78.6 80.4 74.1---
2024-06-18 05:30 pmENE 21.4 25.3----29.99- 79.0 80.4 74.5---
2024-06-18 05:20 pmENE 21.4 25.3 9.8 76.0 E29.99- 78.8 80.2 74.7---
2024-06-18 05:10 pmENE 19.4 23.3 9.8-6.0 E29.97- 77.7 80.2 73.4---
2024-06-18 05:00 pmENE 21.4 29.1----29.97-0.04 77.0 80.2 74.1---
2024-06-18 04:50 pmENE 25.3 31.1 9.2 85.7 E29.97- 77.5 80.2 74.8---

Detailed Wave Summary
for 41009 as of (4:40 pm EDT)
2040 GMT on 06/19/2024:

These wave data are displayed in rounded times.

     

Click on the graph icon in the table below to see a time series plot of the last five days of that observation.

5-day plot - Significant Wave Height Significant Wave Height (WVHT): 7.2 ft
5-day plot - Swell Height Swell Height (SwH): 2.3 ft
5-day plot - Swell Period Swell Period (SwP): 16.0 sec
5-day plot - Swell Direction Swell Direction (SwD): NE
5-day plot - Wind Wave Height Wind Wave Height (WWH): 6.9 ft
5-day plot - Wind Wave Period Wind Wave Period (WWP): 8.3 sec
5-day plot - Wind Wave Direction Wind Wave Direction (WWD):ENE
5-day plot - Wave Steepness Wave Steepness (STEEPNESS): STEEP
5-day plot - Average Wave Period Average Wave Period (APD): 5.8 sec
Previous observations
TIME
(EDT)
5-day plot - Wave Height
WVHT
ft
5-day plot - Swell Height
SwH
ft
5-day plot - Swell Period
SwP
sec
5-day plot - Swell Direction
SwD
 
5-day plot - Wind Wave Height
WWH
ft
5-day plot - Wind Wave Period
WWP
sec
5-day plot - Wind Wave Direction
WWD
 
5-day plot - Wave Steepness
STEEPNESS
 
5-day plot - Average Wave Period
APD
sec
2024-06-19 04:10 pm 7.9 0.0-- 7.9 7.7 ENE STEEP 5.9
2024-06-19 03:40 pm 6.9 4.3 8.3 E 5.2 7.1 ENE STEEP 5.8
2024-06-19 03:10 pm 6.9 2.3 12.9 SW 6.6 7.7 ENE STEEP 5.7
2024-06-19 02:40 pm 6.9 4.3 8.3 E 5.6 7.1 ENE AVERAGE 5.8
2024-06-19 02:10 pm 6.9 3.6 8.3ENE 5.9 6.2 ENE AVERAGE 5.5
2024-06-19 01:40 pm 7.2 5.2 7.7ENE 4.9 6.7 ENE STEEP 5.8
2024-06-19 01:10 pm 7.2 4.9 8.3ENE 5.2 5.0 ENE STEEP 5.7
2024-06-19 12:40 pm 7.2 0.0-- 7.2 7.1 ENE STEEP 5.7
2024-06-19 12:10 pm 7.9 4.9 8.3ENE 6.2 5.9 ENE STEEP 5.8
2024-06-19 11:40 am 7.5 4.3 8.3ENE 6.2 5.9 ENE STEEP 5.7
2024-06-19 11:10 am 7.5 4.3 9.1ENE 6.2 7.7 ENE STEEP 5.9
2024-06-19 10:40 am 7.2 4.3 8.3ENE 5.9 6.7 ENE STEEP 5.6
2024-06-19 10:10 am 7.5 4.9 8.3ENE 5.9 5.3 E STEEP 5.8
2024-06-19 09:40 am 7.9 0.0-- 7.9 8.3 ENE STEEP 5.8
2024-06-19 09:10 am 7.5 4.3 9.1ENE 6.2 5.9 ENE AVERAGE 5.7
2024-06-19 08:40 am 7.2 3.0 9.1ENE 6.6 6.7 ENE AVERAGE 5.6
2024-06-19 08:10 am 7.5 2.6 12.1 NE 7.2 7.7 ENE STEEP 5.7
2024-06-19 07:40 am 7.9 4.6 8.3ENE 6.6 5.9 ENE STEEP 5.9
2024-06-19 07:10 am 8.2 5.2 8.3 NE 6.6 5.6 ENE STEEP 6.1
2024-06-19 06:40 am 7.5 3.3 12.9WNW 6.9 8.3 ENE STEEP 5.9
2024-06-19 06:10 am 7.5 4.3 8.3ENE 6.2 7.1 ENE STEEP 5.6
2024-06-19 05:40 am 7.5 4.6 8.3ENE 5.9 7.1 ENE STEEP 5.8
2024-06-19 05:10 am 7.5 5.6 8.3ENE 5.2 4.8 ENE STEEP 5.8
2024-06-19 04:40 am 7.5 0.0-- 7.5 8.3 ENE STEEP 5.6
2024-06-19 04:10 am 7.9 4.3 9.1ENE 6.6 7.7 ENE AVERAGE 5.6
2024-06-19 03:40 am 8.9 0.0-- 8.9 7.7 ENE STEEP 5.9
2024-06-19 03:10 am 8.5 3.3 19.0WSW 7.9 8.3 ENE STEEP 6.1
2024-06-19 02:40 am 8.2 1.6 14.8 NE 8.2 7.7 ENE STEEP 6.0
2024-06-19 02:10 am 8.9 0.0-- 8.9 8.3 ENE STEEP 5.9
2024-06-19 01:40 am 8.5 0.0-- 8.5 8.3 ENE STEEP 6.0
2024-06-19 01:10 am 8.5 2.6 12.1ENE 7.9 8.3 ENE STEEP 5.8
2024-06-19 12:40 am 8.5 0.0-- 8.5 8.3 ENE STEEP 5.9
2024-06-19 12:10 am 7.5 4.3 8.3ENE 6.6 5.9 ENE STEEP 5.7
2024-06-18 11:40 pm 8.5 0.0-- 8.5 9.1 ENE AVERAGE 6.2
2024-06-18 11:10 pm 8.2 3.6 9.1ENE 7.5 7.7 ENE STEEP 5.9
2024-06-18 10:40 pm 7.9 0.0-- 7.9 8.3 ENE STEEP 5.9
2024-06-18 10:10 pm 8.5 0.0-- 8.5 8.3 ENE STEEP 5.9
2024-06-18 09:40 pm 8.9 0.0-- 8.9 8.3 ENE STEEP 5.8
2024-06-18 09:10 pm 8.5 0.0-- 8.5 8.3 E STEEP 5.8
2024-06-18 08:40 pm 8.2 2.6 14.8SSW 7.9 8.3 ENE STEEP 5.7
2024-06-18 08:10 pm 7.5 3.0 12.9 NE 6.9 8.3 ENE STEEP 5.7
2024-06-18 07:40 pm 7.2 0.0-- 7.2 7.7 ENE STEEP 5.6
2024-06-18 07:10 pm 8.2 1.3 12.9 E 8.2 8.3 ENE STEEP 6.0
2024-06-18 06:40 pm 8.2 0.0-- 8.2 8.3 E STEEP 6.0
2024-06-18 06:10 pm 8.5 4.3 14.8ENE 7.2 7.7 ENE STEEP 5.9
2024-06-18 05:40 pm 9.8 0.7 11.4 E 9.8 7.7 ENE STEEP 6.1
2024-06-18 05:10 pm 9.8 1.0 12.1 E 9.5 7.1 EVERY_STEEP 6.0

Plot of wave energy versus frequency (and period)